Location: Del Amo
(33.8464°N, 118.2104°W)
Time: 08:49:35
(UTC+00:00)

Vanguard 1 Rocket - Pass Details

Date: 20 September 2024
Orbit: 650 x 4218 km, 34.3° (Epoch: 09 October)

Event Time Altitude Azimuth Distance (km) Brightness Sun altitude
Rises 11:16:19 0° 258° (WSW) 4,912 - -29.8°
Reaches altitude 10° 11:18:52 10° 258° (WSW) 4,252 - -29.3°
Exits shadow 11:24:50 42° 257° (WSW) 3,094 9.5 -28.2°
Maximum altitude 11:31:36 88° 170° (S) 2,914 9.7 -26.9°
Drops below altitude 10° 11:55:40 10° 84° (E) 7,306 13.1 -22.2°
Sets 12:01:48 0° 85° (E) 8,455 13.8 -20.9°
